Location: PSU-Greenbush Astrophysical Observatory
(37.5140°N, 94.9880°W)
Time: 18:24:55
(UTC-06:00)

Transit 2A - Pass Details

Date: 29 January 2020
Orbit: 599 x 959 km, 66.7° (Epoch: 27 February)

Event Time Altitude Azimuth Distance (km) Brightness Sun altitude
Rises 19:38:57 0° 234° (SW) 2,899 9.9 -23.6°
Reaches altitude 10° 19:41:31 10° 246° (WSW) 1,965 9.1 -24.1°
Maximum altitude 19:45:16 28° 305° (NW) 1,149 7.4 -24.9°
Enters shadow 19:47:38 17° 352° (N) 1,517 7.6 -25.3°
Drops below altitude 10° 19:49:01 10° 5° (N) 1,945 - -25.6°
Sets 19:51:32 0° 18° (NNE) 2,864 - -26.1°
